Theta_e
361 361 362 362 362 360 359 361 359 358 357 358 360 359 360 362 361 360 360 360 362 362 361 361 361 361 361 362 361 360 359 357 356 356 352 351 351 348 346 345 347 349
361 362 362 363 363 360 360 361 361 360 360 360 360 360 361 361 361 359 359 360 362 362 363 362 362 361 362 363 362 360 359 358 357 357 354 352 351 350 348 346 346 347
362 363 363 363 363 362 360 360 362 362 362 362 361 360 361 361 361 360 359 361 361 363 364 363 362 362 362 362 363 361 360 359 358 356 356 353 352 351 350 347 347 347
363 363 364 364 363 362 360 359 361 362 362 363 361 360 360 361 362 361 359 360 361 363 364 364 364 364 363 362 362 363 360 359 358 358 358 355 352 351 351 350 348 347
363 363 364 364 363 362 360 358 359 361 362 363 362 360 359 358 360 362 360 359 361 362 363 365 365 365 364 363 363 363 362 361 359 359 358 356 354 352 352 351 350 347
363 363 363 364 363 362 360 358 358 359 361 362 361 360 359 356 357 361 362 361 360 361 363 364 365 365 365 364 363 363 362 361 361 360 359 358 355 353 352 352 351 348
363 363 363 364 365 362 361 359 357 357 360 361 360 360 360 357 356 358 361 362 362 361 361 363 364 364 365 364 364 363 362 362 361 361 360 359 357 354 353 352 352 349
362 363 362 364 364 361 359 358 359 358 359 360 360 359 360 359 356 356 357 362 364 362 361 362 362 363 364 364 363 364 364 362 361 360 360 360 359 356 354 353 353 351
364 364 363 363 363 361 359 357 359 360 358 359 361 360 359 359 358 357 356 358 363 363 363 361 361 362 362 362 364 365 364 363 361 360 360 361 361 359 356 354 354 353
365 366 366 364 364 363 361 357 357 360 360 359 359 360 360 359 359 359 357 358 360 363 363 361 360 361 361 362 362 363 364 364 363 360 360 361 361 360 357 355 355 354
365 366 367 366 364 363 362 359 357 359 361 360 360 359 360 361 360 360 360 360 360 361 363 362 361 360 360 361 362 362 364 364 363 361 360 361 361 360 359 357 356 355
365 365 366 367 364 362 361 360 358 358 360 361 362 360 359 360 361 361 361 362 362 361 362 363 362 361 360 361 361 362 363 364 364 362 360 360 361 360 359 358 357 356
364 363 365 366 363 361 360 359 358 357 358 361 363 363 361 360 361 363 361 362 363 362 362 362 362 361 360 361 361 363 363 364 365 363 361 361 361 361 360 359 358 357
366 364 363 364 363 361 361 360 359 357 357 358 362 365 364 360 360 363 363 363 363 363 364 363 363 362 362 361 361 363 363 364 365 365 363 362 362 362 362 361 359 357
366 365 363 363 363 362 361 360 360 358 358 358 360 363 365 363 361 361 363 365 363 364 365 365 363 363 362 363 362 362 363 364 364 366 365 364 363 363 363 362 360 358
366 365 364 363 363 363 361 361 360 360 358 359 359 361 363 365 363 359 361 365 366 365 366 366 366 364 363 362 362 362 362 363 363 364 365 364 363 363 363 363 362 360
366 367 366 364 363 362 363 362 360 360 360 359 359 359 360 363 364 361 359 361 365 366 367 368 367 365 364 362 361 360 360 361 362 363 365 363 363 362 362 363 362 361
368 368 368 367 365 363 363 362 362 360 360 360 359 358 359 361 364 364 360 358 363 367 368 368 367 367 365 364 361 360 358 360 360 362 364 364 363 361 361 361 362 362
369 370 370 369 367 364 363 363 363 361 360 360 360 359 359 359 363 365 364 361 360 364 368 369 368 367 366 365 364 362 359 360 360 360 362 363 363 361 360 359 360 360
370 371 372 370 368 365 363 364 364 363 361 360 360 361 361 361 363 364 365 364 361 362 365 368 369 369 369 368 366 364 361 361 360 361 361 361 362 363 361 359 358 359
373 374 374 373 370 367 365 365 365 366 365 362 361 361 362 363 363 364 365 366 365 363 363 365 368 370 370 369 368 366 364 362 360 360 361 362 363 363 362 361 359 358
374 375 376 375 374 370 369 367 367 369 367 365 363 362 362 363 364 364 365 365 366 365 364 364 364 366 369 370 369 367 366 363 362 361 362 363 363 363 363 362 361 360
375 377 377 375 374 373 371 369 369 370 370 368 365 364 365 365 366 365 365 365 365 366 367 365 364 365 366 368 369 370 367 365 364 363 362 362 362 363 363 363 363 362
377 377 377 375 376 376 374 372 371 371 371 370 368 367 366 366 368 367 366 367 367 367 367 367 365 365 364 364 367 369 369 368 365 364 364 363 363 362 362 363 364 365
375 378 377 376 376 377 376 374 372 371 372 372 370 367 366 366 368 369 369 368 368 367 368 368 367 367 366 364 366 366 368 368 366 364 364 364 363 363 362 362 363 364
375 376 376 376 376 377 376 374 372 372 372 372 371 370 368 367 366 368 370 370 370 369 368 367 367 368 367 367 366 365 366 367 366 365 365 365 365 364 363 363 363 363
Wind_Speed
31 31 30 28 27 26 25 26 26 26 25 24 24 25 24 23 23 22 23 24 24 23 22 21 21 20 19 18 17 16 17 18 17 16 17 16 15 14 14 14 13 12
33 32 31 29 28 28 27 26 26 26 26 25 24 25 26 25 23 24 24 24 24 23 23 23 22 22 21 19 20 19 18 19 18 17 18 18 16 15 15 15 15 14
34 32 32 31 30 30 28 26 26 26 26 26 25 25 25 25 24 25 25 25 25 24 23 23 23 24 23 21 21 22 21 21 20 18 18 19 18 17 16 16 16 16
36 34 33 32 30 30 29 28 27 27 26 26 27 26 24 24 25 26 26 25 26 25 24 24 24 24 25 23 22 23 22 22 22 20 19 20 21 19 17 17 17 17
38 36 34 33 31 30 31 30 29 29 28 27 27 27 26 25 25 26 27 26 26 26 25 25 25 25 25 25 24 24 23 22 23 22 21 21 22 21 19 18 19 19
39 37 36 34 32 31 32 32 31 29 28 27 26 27 27 26 25 25 27 27 26 26 26 26 26 26 25 25 26 25 24 23 23 24 23 22 21 22 20 19 21 21
39 39 37 35 33 33 32 32 32 30 29 28 27 26 26 27 27 26 26 27 27 27 27 27 27 27 27 27 27 26 25 24 23 25 25 23 22 22 21 21 22 23
39 39 39 36 34 34 34 32 31 32 30 28 27 27 27 27 28 29 27 27 27 28 28 28 28 29 28 27 28 28 27 25 24 25 27 26 24 24 24 22 22 23
40 39 38 37 35 34 34 33 31 31 31 30 28 28 28 28 28 29 30 29 28 29 30 29 29 30 30 29 29 29 28 27 26 26 27 28 27 26 26 25 24 24
39 38 36 36 35 33 33 33 31 30 31 32 31 28 28 29 29 28 30 31 30 29 30 31 30 30 31 30 30 30 30 29 27 27 28 29 29 28 28 28 27 26
39 37 36 36 36 34 32 33 32 30 30 32 32 30 28 29 30 30 29 31 32 31 30 31 31 31 31 31 31 31 31 30 29 29 28 29 30 30 30 30 30 29
39 38 37 36 36 35 33 33 32 31 30 30 31 32 30 29 30 32 31 31 33 33 32 32 32 33 33 33 32 31 32 31 30 29 29 30 31 31 31 32 32 31
39 40 38 36 37 36 33 33 33 32 32 31 31 32 32 30 30 32 33 33 33 34 34 33 34 34 34 35 34 32 32 31 30 29 29 30 31 32 32 32 33 33
39 40 39 37 36 37 35 34 33 34 34 33 32 31 31 31 31 31 33 34 34 34 34 34 34 35 35 35 35 33 32 31 31 30 29 30 30 31 32 32 32 33
37 37 38 37 36 37 37 36 35 35 35 34 33 32 31 31 31 31 32 33 33 33 33 33 34 35 36 35 35 34 33 32 32 32 31 30 30 30 31 31 31 31
37 36 37 37 37 37 38 37 35 34 34 34 34 33 31 31 32 31 31 32 33 33 33 33 34 35 36 37 37 36 35 34 33 33 33 32 31 31 31 31 31 31
37 37 36 37 38 36 36 37 36 34 33 34 34 34 33 32 32 32 32 31 32 33 34 34 35 35 37 39 40 40 39 37 35 34 34 34 33 33 32 32 32 32
36 36 35 36 37 37 36 37 37 35 34 34 34 35 34 32 32 33 33 32 31 32 34 35 36 37 38 41 43 44 43 41 38 35 35 35 35 35 34 33 33 33
34 35 34 35 36 37 37 36 36 36 35 34 34 34 34 34 33 33 34 34 32 31 33 35 37 38 39 42 44 45 46 44 40 37 36 36 37 37 37 36 36 35
33 33 34 34 35 36 36 35 36 37 37 35 33 33 34 34 34 33 33 35 35 34 33 34 36 37 39 41 44 45 46 47 44 40 38 37 37 38 38 38 39 37
33 32 32 32 33 34 35 35 35 35 35 34 33 33 35 35 35 35 34 35 36 36 35 33 34 37 39 41 43 45 46 48 47 43 39 37 37 38 39 39 39 38
32 31 30 30 31 32 33 34 34 33 34 34 33 32 33 34 35 35 35 35 35 36 36 35 34 35 38 41 43 44 45 48 50 46 40 37 37 38 38 38 38 38
30 30 30 30 30 31 33 34 33 32 32 33 32 30 29 31 33 34 34 35 34 35 36 37 35 34 36 39 42 43 45 47 50 48 42 40 39 38 36 36 37 38
30 30 30 30 30 30 31 31 31 31 31 31 32 31 28 27 28 30 31 32 33 34 35 35 35 35 35 37 39 41 44 47 49 47 43 41 41 39 36 35 35 37
30 30 30 30 30 28 27 28 29 28 28 28 29 30 28 27 26 26 28 30 31 32 33 34 34 33 34 36 36 38 41 45 46 44 42 41 40 38 36 35 35 36
29 30 29 29 29 28 26 27 27 26 26 26 26 27 28 28 27 26 26 27 28 29 30 32 33 31 31 33 35 36 38 42 43 41 40 40 37 34 34 35 37 37
Wind_Direction
196 197 198 200 200 200 198 196 197 198 199 200 200 201 203 204 203 202 203 205 207 206 206 206 205 205 206 201 197 199 198 195 197 200 199 200 205 207 211 215 215 223
196 197 198 200 201 201 201 199 198 198 200 201 202 203 205 205 204 203 203 204 206 207 206 206 205 204 204 202 199 199 200 197 197 201 202 202 204 206 210 214 213 218
195 196 197 199 201 201 201 200 199 200 201 202 203 204 204 204 204 204 204 204 204 205 205 205 205 205 204 203 202 201 201 200 198 202 205 203 205 207 209 213 214 215
195 197 198 199 200 201 200 201 201 201 202 203 205 205 204 203 204 205 205 204 204 203 203 204 204 205 205 204 204 203 202 204 202 202 206 207 206 207 210 211 214 216
196 197 198 199 200 201 200 201 202 202 203 205 206 205 206 205 203 203 205 205 204 203 202 204 204 205 205 204 204 205 204 206 206 204 206 209 207 206 209 211 212 216
196 197 199 200 200 200 200 202 203 203 204 206 206 206 207 208 204 201 203 205 205 204 202 204 204 205 205 205 205 207 207 207 208 207 207 208 208 207 209 212 212 214
196 198 199 199 200 200 201 203 204 204 205 206 207 207 207 208 208 204 203 203 205 206 205 204 204 204 205 206 206 208 209 208 209 210 209 208 208 208 209 212 214 213
196 198 199 199 200 201 202 203 204 205 206 206 207 208 207 208 209 208 206 204 204 206 207 206 206 206 206 206 208 209 210 210 210 210 210 209 209 209 210 211 214 214
196 197 198 199 200 202 203 203 204 205 206 206 207 208 209 209 209 209 208 207 206 206 207 208 207 207 207 207 209 210 210 210 210 211 211 211 210 210 211 211 212 215
195 195 195 197 198 200 202 202 203 204 205 207 208 209 210 210 209 209 208 208 208 208 208 209 209 209 209 209 210 211 212 212 211 212 213 213 213 212 211 211 212 214
194 194 194 195 196 199 200 201 202 202 204 206 208 209 209 209 209 209 209 208 209 210 210 210 210 210 209 210 211 212 213 214 213 213 214 215 216 216 214 213 213 214
194 195 196 195 197 199 201 201 202 202 203 204 205 207 208 208 208 208 209 209 210 211 211 211 211 211 211 212 212 212 213 215 215 215 216 217 218 218 217 215 215 215
197 197 198 197 199 201 201 202 203 203 204 203 202 205 207 207 207 207 209 210 211 212 212 212 212 212 213 213 213 213 213 213 214 216 217 218 219 220 219 218 218 218
198 199 200 200 201 202 202 203 204 204 205 204 203 203 206 208 207 206 207 209 211 213 213 213 213 213 214 214 214 214 214 213 214 215 217 218 220 221 221 221 221 221
198 199 201 202 201 202 202 203 205 205 205 205 204 204 206 209 210 208 206 207 209 212 213 213 214 214 214 215 214 214 215 216 216 216 217 218 219 221 222 223 223 223
196 198 200 201 202 202 203 204 205 205 205 206 206 206 207 208 211 212 210 206 206 209 212 213 215 216 215 215 216 216 216 217 217 218 219 219 220 220 222 223 224 224
195 197 198 201 203 203 203 204 205 206 207 207 208 209 209 209 210 213 213 210 206 207 210 213 216 217 217 217 217 218 217 217 218 219 219 220 222 222 222 223 224 226
194 195 197 200 202 203 203 204 205 206 208 208 209 210 210 210 210 211 214 215 211 207 208 214 217 218 219 219 219 219 219 218 219 219 220 221 223 223 224 224 224 225
194 195 196 199 200 202 203 203 204 207 208 209 210 210 210 211 211 211 213 216 216 212 210 213 218 220 220 220 220 221 221 219 219 220 221 222 223 224 225 225 225 225
194 195 197 199 199 200 201 202 204 206 208 210 210 210 210 211 212 213 213 214 218 219 217 216 218 220 221 221 222 223 223 221 221 221 222 224 225 225 226 227 227 226
192 194 197 198 199 199 200 202 204 206 207 208 210 211 211 212 212 214 215 215 217 220 222 223 221 221 221 222 223 224 224 224 223 223 224 226 227 227 228 229 229 228
191 193 196 198 198 198 200 202 204 205 206 207 209 211 213 213 213 215 216 218 219 220 223 227 227 225 223 223 224 225 225 225 225 224 226 228 229 229 230 230 230 230
190 192 194 196 197 198 201 202 204 205 205 207 209 211 213 213 214 216 217 219 220 221 223 227 228 228 228 227 226 224 224 224 224 224 225 229 232 233 232 232 232 231
189 192 194 196 198 199 200 201 203 205 206 207 209 211 214 215 215 217 219 220 222 223 225 228 229 230 232 232 230 227 224 223 224 223 225 230 234 236 236 237 236 235
190 193 194 196 198 198 197 199 203 205 206 208 209 211 216 218 216 217 219 221 224 226 227 230 231 232 234 235 236 232 227 224 223 222 225 230 234 237 239 241 241 241
192 193 195 197 199 199 198 200 202 203 204 205 207 211 215 218 219 219 219 220 223 227 229 231 232 233 235 237 238 237 232 227 222 221 226 231 234 237 240 242 243 243